DERBW EDKB-ZZZZ

Flight info

Callsign DERBW
Flight time N/A
Altitude
Route
Aircraft DA40

Departure

Time 2026-04-15 18:17
Airport Bonn-Hangelar Airfield (EDKB)

Arrival

Time N/A
Airport ZZZZ
Time Latitude Longitude Altitude Speed Heading
2026-04-15 18:17 50.82756 6.99206 1669 ft 123 kts
2026-04-15 18:17 50.83576 6.99416 1750 ft 117 kts
2026-04-15 18:17 50.84375 6.99537 1798 ft 115 kts 357°
2026-04-15 18:18 50.85175 6.99400 1825 ft 115 kts 349°
2026-04-15 18:18 50.85956 6.99169 1842 ft 114 kts 342°
2026-04-15 18:18 50.86728 6.98799 1817 ft 118 kts 339°
2026-04-15 18:18 50.87535 6.98358 1537 ft 121 kts 338°
2026-04-15 18:19 50.88282 6.97925 1385 ft 108 kts 337°
2026-04-15 18:19 50.88966 6.97557 1276 ft 105 kts 338°
2026-04-15 18:19 50.89667 6.97092 1168 ft 113 kts 333°
2026-04-15 18:19 50.90372 6.96569 1148 ft 108 kts 331°
2026-04-15 18:20 50.91031 6.96034 1185 ft 106 kts 336°
2026-04-15 18:20 50.91721 6.95643 1234 ft 104 kts 340°
2026-04-15 18:20 50.92420 6.95278 1199 ft 106 kts 339°
2026-04-15 18:20 50.93145 6.94884 1080 ft 113 kts 340°
2026-04-15 18:21 50.93868 6.94617 1014 ft 102 kts
2026-04-15 18:21 50.94461 6.95160 952 ft 91 kts 49°
2026-04-15 18:21 50.94641 6.95969 994 ft 82 kts 127°
2026-04-15 18:21 50.94099 6.96478 974 ft 87 kts 170°
2026-04-15 18:22 50.93652 6.96118 1130 ft 79 kts 250°
2026-04-15 18:22 50.93848 6.95280 1216 ft 88 kts 328°
2026-04-15 18:22 50.94464 6.95365 1275 ft 95 kts
2026-04-15 18:22 50.95163 6.95338 1211 ft 103 kts 353°
2026-04-15 18:23 50.95776 6.95106 1367 ft 86 kts 326°
2026-04-15 18:23 50.95774 6.94398 1102 ft 100 kts 171°
2026-04-15 18:23 50.95114 6.94859 1049 ft 102 kts 159°
2026-04-15 18:23 50.94904 6.94996 1062 ft 101 kts 159°